SL-8 DEB

Satellite information

Favourite Embed

Satellite Type and Status

DEBRISIN ORBIT

Key statistics

Satellite SL-8 DEB at a glance.

Uptime

19775

Days in orbit

Revolutions

≈ 13.7

Per day

Orbit

LEO

Low Earth Orbit

Inclination

65.8

Latest

Satellite identification and parameters

Extended collection of information and parameters for SL-8 DEB.

Object identification

Identified? True

Debris? True

Object name: SL-8 DEB

International designator: 1971-020C

Object number (NORAD): 5052

Object ID (CCSDS): 5052

Country: COMMONWEALTH OF INDEPENDENT STATES (CIS)

Current information (Y/N): Y

RCS size: MEDIUM

Orbital parameters

Period: 104.834 minutes

Inclination: 65.8219 deg

SMA: 7364.818 km

Apoapsis: 995.372 km

Periapsis: 977.995 km

RAAN: 50.8407 deg

Eccentricy: 0.0011797

Argument of periapsis: 297.909 deg

Mean anomaly: 123.0226 deg

Mean motion: 13.73598185 rev/day

Mean motion (dot): -0.00000014 rev/day2

B* drag term: 0.000071423 1/REarth

Two-line elements (TLE)

Creation date: May 8, 2025, 3:01 a.m.

Reference frame: TEME

Reference center: EARTH

Epoch: May 7, 2025, 9:17 p.m. UTC

TLE line 0: 0 SL-8 DEB

TLE line 1: 1 05052U 71020C 25127.88704329 -.00000014 00000-0 71423-4 0 9997

TLE line 2: 2 05052 65.8219 50.8407 0011797 297.9090 123.0226 13.73598185713546

Live tracking on map

Real-time ground track for satellite SL-8 DEB.

In-orbit conjunctions

A list of the most updated potential collisions computed for object SL-8 DEB.

Target Orbit TCA Probability of collision Miss distance Type
THOR ABLESTAR DEB LEO 2024-07-14 09:29:59 0.0002111838 212.0 (m) DEBRIS

Associated space launch

ASAT target satellite

SL-8 DEB was lifted into orbit during the mission ‘Kosmos-3M | DS-P1-M 4’, on board a Kosmos-3M space rocket.

The launch took place on March 18, 1971, 9:45 p.m. from 132/1 (132L).

For more information about the launch, click the button.

Launch to space Kosmos-3M | DS-P1-M 4
Kosmos-3M | DS-P1-M 4

Agency: N/A

Status: Launch Successful

Launch date: March 18, 1971, 9:45 p.m. UTC

Rocket: Kosmos-3M

Launch pad: 132/1 (132L)

Location: Plesetsk Cosmodrome, Russian Federation

...

Latest news about this satellite

There are no fresh news available about this satellite. Check back as we update our databases every day.


Newsletter sign-up

Weekly statistics, charts and insights to help you stay on top of the space industry.